STARLINK-32154 (60276 NORAD) Tracking and Keplerian Element Data

This shows tracking and keplerian element data for the satellite.

Feedback or suggestion? Click here.




ElementValue
Catalog60276
NameSTARLINK-32154
Epoch Orbit1311
Epoch Day286.39147694
Epoch Year2024
RAAN277.8377
Inclination53.159
Eccentricity0.0001293
Argument of Perigee88.0845
Mean Anonmoly272.0308
Mean Motion15.39633076
Decay Rate0.0005823
L11 60276U 24131X 24286.39147694 .00058230 00000+0 14540-2 0 9990
L22 60276 53.1590 277.8377 0001293 88.0845 272.0308 15.39633076 13116



Live tracking and technical data element details for STARLINK-32154 (NORAD 60276). STARLINK-32154 can be tracked NOW for your location showing map with azimuth and elevation plus other details from your city location.







IsCatalogInMostPopularTable: catalog: 60276, numindb: 16
Update: records affected: 1



GetName: 60276 STARLINK-32154

Hit Count: updated at: Thu, 23 Jan 2025 14:20:59 GMT